Retour au catalogue

COSMOS 2251 DEB

ActifLEO
NORAD 38006·DEBRIS·🇷🇺 Russia

Lancé Jun 16, 1993 depuis Plesetsk Cosmodrome

Loading…

Prochains Passages (prochaines 24 heures)

TLE

FraisSource: Space-Track

Époque: Sep 14, 2026, 15:50 UTC

1 38006U 93036BRH 26257.66029786  .00003621  00000-0  92718-3 0  9996
2 38006  73.8426 235.5285 0066239 134.4381 226.2225 14.49428000669542

Suivez COSMOS 2251 DEB en temps réel avec AllMySat

Download on the App Store